Location: Jackson Park
(37.2862°N, 79.9123°W)
Time: 20:48:28
(UTC+00:00)

Vanguard 2 - Pass Details

Date: 17 May 2026
Orbit: 553 x 2894 km, 32.9° (Epoch: 6 June)

Event Time Altitude Azimuth Distance (km) Brightness Sun altitude
Rises 13:01:29 0° 282° (WNW) 6,437 11.7 32.3°
Reaches altitude 10° 13:06:52 10° 273° (W) 5,138 11.3 33.4°
Maximum altitude 13:18:00 29° 222° (SW) 3,037 10.5 35.6°
Drops below altitude 10° 13:25:49 10° 166° (SSE) 3,524 11.2 37.1°
Sets 13:28:46 0° 155° (SSE) 4,184 11.6 37.7°
